VTK503 UUEE-UNNT

Flight info

Callsign VTK503
Flight time 3h 27m
Altitude 37000
Route OLMUN3H OLMUN T629 IPSIL T830 LAMGU N604 OGSIN P983 TINRI T448 RUBOR A300 ML R814 SZ W1 GOLIM GOLIM1K
Aircraft A319/M-SDE3FGHIRWY/LB1

Departure

Time 2026-05-01 07:23
Airport Sheremetyevo International Airport (UUEE)

Arrival

Time 2026-05-01 10:51
Airport Novosibirsk Tolmachevo Airport (UNNT)
Time Latitude Longitude Altitude Speed Heading
2026-05-01 07:23 56.14478 37.23074 22760 ft 325 kts 71°
2026-05-01 07:23 56.14230 37.31391 23959 ft 357 kts 103°
2026-05-01 07:24 56.12899 37.35281 24432 ft 380 kts 124°
2026-05-01 07:24 56.10752 37.38264 24894 ft 404 kts 144°
2026-05-01 07:24 56.08189 37.40477 25363 ft 411 kts 147°
2026-05-01 07:24 56.05588 37.42642 25818 ft 414 kts 148°
2026-05-01 07:25 56.02911 37.44847 26278 ft 418 kts 148°
2026-05-01 07:25 56.00305 37.47112 26713 ft 417 kts 142°
2026-05-01 07:25 55.97947 37.50023 27139 ft 409 kts 131°
2026-05-01 07:25 55.95961 37.53593 27570 ft 402 kts 121°
2026-05-01 07:26 55.94361 37.57703 27986 ft 395 kts 111°
2026-05-01 07:26 55.93209 37.62111 28389 ft 389 kts 102°
2026-05-01 07:26 55.92493 37.66720 28791 ft 384 kts 93°
2026-05-01 07:26 55.91959 37.71409 29171 ft 390 kts 97°
2026-05-01 07:27 55.91041 37.76040 29541 ft 403 kts 107°
2026-05-01 07:27 55.89704 37.80489 29920 ft 411 kts 111°
2026-05-01 07:27 55.88298 37.84949 30296 ft 414 kts 111°
2026-05-01 07:27 55.86888 37.89437 30592 ft 417 kts 112°
2026-05-01 07:28 55.85471 37.93962 30880 ft 420 kts 112°
2026-05-01 07:28 55.84025 37.98585 31185 ft 423 kts 112°
2026-05-01 07:28 55.82588 38.03174 31465 ft 426 kts 112°
2026-05-01 07:28 55.81249 38.07870 31739 ft 424 kts 106°
2026-05-01 07:29 55.80323 38.12822 32010 ft 420 kts 98°
2026-05-01 07:29 55.79839 38.17930 32178 ft 420 kts 89°
2026-05-01 07:29 55.79804 38.23107 32310 ft 421 kts 83°
2026-05-01 07:29 55.79937 38.28344 32444 ft 426 kts 83°
2026-05-01 07:30 55.80061 38.33643 32585 ft 432 kts 83°
2026-05-01 07:30 55.80241 38.38966 32806 ft 432 kts 79°
2026-05-01 07:30 55.80810 38.44196 33074 ft 429 kts 71°
2026-05-01 07:30 55.81695 38.49242 33356 ft 429 kts 69°
2026-05-01 07:31 55.82609 38.54302 33632 ft 430 kts 69°
2026-05-01 07:31 55.85352 38.69574 34451 ft 433 kts 69°
2026-05-01 07:32 55.87784 38.79357 34933 ft 432 kts 62°
2026-05-01 07:32 55.89074 38.84189 35134 ft 433 kts 62°
2026-05-01 07:33 55.91661 38.93920 35573 ft 435 kts 63°
2026-05-01 07:33 55.92950 38.98794 35781 ft 436 kts 63°
2026-05-01 07:33 55.95533 39.08613 36187 ft 437 kts 63°
2026-05-01 07:34 55.96841 39.13600 36387 ft 438 kts 63°
2026-05-01 07:34 55.99445 39.23450 36763 ft 439 kts 63°
2026-05-01 07:34 56.00751 39.28377 36951 ft 440 kts 63°
2026-05-01 07:35 56.02060 39.33322 37131 ft 440 kts 63°
2026-05-01 07:35 56.04688 39.43291 37209 ft 445 kts 63°
2026-05-01 07:36 56.07324 39.53405 37210 ft 445 kts 62°
2026-05-01 07:36 56.10541 39.62846 37211 ft 444 kts 56°
2026-05-01 07:37 56.15563 39.76816 37210 ft 445 kts 56°
2026-05-01 07:37 56.18899 39.86165 37208 ft 445 kts 56°
2026-05-01 07:38 56.22245 39.95604 37216 ft 445 kts 56°
2026-05-01 07:39 56.27230 40.09697 37218 ft 445 kts 56°
2026-05-01 07:39 56.32197 40.23838 37216 ft 445 kts 56°
2026-05-01 07:40 56.35529 40.33327 37217 ft 446 kts 56°
2026-05-01 07:40 56.38833 40.42811 37214 ft 446 kts 57°
2026-05-01 07:41 56.42121 40.52305 37212 ft 446 kts 57°
2026-05-01 07:42 56.46558 40.67077 37201 ft 449 kts 71°
2026-05-01 07:42 56.48227 40.78047 37200 ft 449 kts 73°
2026-05-01 07:43 56.49862 40.88961 37196 ft 450 kts 73°
2026-05-01 07:43 56.52325 41.05371 37199 ft 450 kts 73°
2026-05-01 07:44 56.55302 41.25543 37198 ft 451 kts 73°
2026-05-01 07:45 56.56905 41.36556 37207 ft 452 kts 73°
2026-05-01 07:45 56.58500 41.47570 37206 ft 452 kts 73°
2026-05-01 07:46 56.60106 41.58759 37200 ft 452 kts 74°
2026-05-01 07:47 56.62475 41.75371 37208 ft 453 kts 74°
2026-05-01 07:47 56.64044 41.86462 37203 ft 454 kts 74°
2026-05-01 07:48 56.66379 42.03161 37198 ft 455 kts 74°
2026-05-01 07:48 56.67930 42.14307 37196 ft 455 kts 74°
2026-05-01 07:49 56.70230 42.31060 37189 ft 455 kts 75°
2026-05-01 07:50 56.71751 42.42258 37189 ft 456 kts 75°
2026-05-01 07:50 56.74037 42.59078 37193 ft 456 kts 73°
2026-05-01 07:51 56.75831 42.70242 37188 ft 456 kts 71°
2026-05-01 07:52 56.78671 42.86800 37184 ft 456 kts 72°
2026-05-01 07:52 56.80492 42.97978 37185 ft 457 kts 72°
2026-05-01 07:53 56.83140 43.14702 37192 ft 458 kts 73°
2026-05-01 07:53 56.84901 43.25885 37193 ft 458 kts 73°
2026-05-01 07:55 56.89306 43.53911 37192 ft 459 kts 73°
2026-05-01 07:56 56.93647 43.82072 37193 ft 461 kts 73°
2026-05-01 07:57 56.96243 43.99108 37187 ft 461 kts 73°
2026-05-01 07:58 56.99645 44.21771 37184 ft 461 kts 73°
2026-05-01 07:59 57.03008 44.44465 37176 ft 461 kts 74°
2026-05-01 08:00 57.07987 44.78679 37175 ft 461 kts 74°
2026-05-01 08:01 57.11253 45.01495 37169 ft 461 kts 75°
2026-05-01 08:02 57.13671 45.18649 37165 ft 462 kts 75°
2026-05-01 08:03 57.16068 45.35824 37158 ft 462 kts 75°
2026-05-01 08:03 57.18449 45.53025 37161 ft 462 kts 75°
2026-05-01 08:04 57.21593 45.76129 37168 ft 463 kts 76°
2026-05-01 08:05 57.23918 45.93447 37159 ft 463 kts 76°
2026-05-01 08:06 57.26230 46.10787 37160 ft 464 kts 76°
2026-05-01 08:07 57.29275 46.33992 37161 ft 465 kts 76°
2026-05-01 08:08 57.31530 46.51429 37159 ft 465 kts 76°
2026-05-01 08:09 57.34517 46.74805 37154 ft 465 kts 74°
2026-05-01 08:09 57.36937 46.85908 37148 ft 465 kts 65°
2026-05-01 08:10 57.42265 47.07790 37144 ft 466 kts 66°
2026-05-01 08:11 57.47104 47.27924 37147 ft 467 kts 66°
2026-05-01 08:12 57.51055 47.44488 37150 ft 468 kts 66°
2026-05-01 08:13 57.55005 47.61108 37148 ft 468 kts 66°
2026-05-01 08:13 57.58932 47.77801 37151 ft 469 kts 67°
2026-05-01 08:14 57.61553 47.89018 37157 ft 469 kts 67°
2026-05-01 08:14 57.64153 48.00174 37159 ft 469 kts 67°
2026-05-01 08:15 57.68031 48.16932 37151 ft 469 kts 67°
2026-05-01 08:16 57.70605 48.28120 37158 ft 469 kts 67°
2026-05-01 08:16 57.73162 48.39351 37157 ft 469 kts 68°
2026-05-01 08:17 57.75190 48.50903 37159 ft 467 kts 82°
2026-05-01 08:17 57.76058 48.62966 37157 ft 468 kts 83°
2026-05-01 08:18 57.76919 48.75035 37160 ft 468 kts 83°
2026-05-01 08:19 57.78612 48.99240 37146 ft 468 kts 83°
2026-05-01 08:19 57.79433 49.11344 37150 ft 468 kts 84°
2026-05-01 08:20 57.80252 49.23463 37147 ft 469 kts 84°
2026-05-01 08:20 57.81062 49.35659 37154 ft 469 kts 84°
2026-05-01 08:21 57.81853 49.47799 37150 ft 469 kts 84°
2026-05-01 08:21 57.82634 49.59954 37147 ft 469 kts 84°
2026-05-01 08:22 57.83409 49.72113 37149 ft 469 kts 84°
2026-05-01 08:22 57.84168 49.84287 37144 ft 469 kts 84°
2026-05-01 08:23 57.84913 49.96457 37143 ft 470 kts 85°
2026-05-01 08:23 57.85649 50.08647 37132 ft 470 kts 85°
2026-05-01 08:24 57.86380 50.20837 37141 ft 470 kts 85°
2026-05-01 08:24 57.87098 50.33021 37138 ft 470 kts 85°
2026-05-01 08:25 57.87803 50.45220 37139 ft 470 kts 85°
2026-05-01 08:25 57.88504 50.57503 37138 ft 470 kts 85°
2026-05-01 08:26 57.89188 50.69716 37137 ft 470 kts 86°
2026-05-01 08:26 57.89855 50.81929 37129 ft 470 kts 86°
2026-05-01 08:27 57.90516 50.94146 37124 ft 469 kts 86°
2026-05-01 08:27 57.91162 51.06355 37131 ft 469 kts 86°
2026-05-01 08:28 57.91796 51.18574 37124 ft 470 kts 86°
2026-05-01 08:28 57.92421 51.30815 37128 ft 470 kts 86°
2026-05-01 08:29 57.93027 51.43043 37126 ft 470 kts 87°
2026-05-01 08:29 57.93634 51.55284 37124 ft 470 kts 87°
2026-05-01 08:30 57.94235 51.67539 37123 ft 470 kts 87°
2026-05-01 08:30 57.94826 51.79896 37121 ft 471 kts 87°
2026-05-01 08:31 57.95413 51.92175 37122 ft 471 kts 87°
2026-05-01 08:31 57.95977 52.04464 37116 ft 471 kts 87°
2026-05-01 08:32 57.96526 52.16741 37112 ft 471 kts 88°
2026-05-01 08:32 57.97068 52.29036 37108 ft 471 kts 88°
2026-05-01 08:33 57.97599 52.41311 37101 ft 471 kts 88°
2026-05-01 08:33 57.98118 52.53620 37094 ft 471 kts 88°
2026-05-01 08:34 57.98627 52.66009 37094 ft 472 kts 88°
2026-05-01 08:34 57.99120 52.78337 37091 ft 472 kts 89°
2026-05-01 08:35 57.99601 52.90682 37087 ft 472 kts 89°
2026-05-01 08:35 58.00064 53.03005 37086 ft 472 kts 89°
2026-05-01 08:36 58.00530 53.15349 37079 ft 472 kts 89°
2026-05-01 08:36 58.00982 53.27704 37079 ft 472 kts 89°
2026-05-01 08:37 58.01413 53.40067 37077 ft 472 kts 89°
2026-05-01 08:37 58.01834 53.52438 37077 ft 473 kts 89°
2026-05-01 08:38 58.02238 53.64810 37077 ft 473 kts 90°
2026-05-01 08:38 58.02634 53.77204 37076 ft 473 kts 90°
2026-05-01 08:39 58.03032 53.89593 37073 ft 473 kts 90°
2026-05-01 08:39 58.03407 54.01986 37073 ft 473 kts 90°
2026-05-01 08:40 58.03964 54.20558 37071 ft 473 kts 90°
2026-05-01 08:40 58.04314 54.32950 37069 ft 472 kts 90°
2026-05-01 08:41 58.04658 54.45411 37064 ft 472 kts 90°
2026-05-01 08:41 58.04936 54.55705 37062 ft 472 kts 91°
2026-05-01 08:42 58.05255 54.68085 37055 ft 472 kts 91°
2026-05-01 08:42 58.05354 54.80418 37048 ft 467 kts 100°
2026-05-01 08:43 58.04499 54.92633 37044 ft 466 kts 102°
2026-05-01 08:43 58.03637 55.04751 37041 ft 466 kts 102°
2026-05-01 08:44 58.02763 55.16875 37039 ft 466 kts 102°
2026-05-01 08:44 58.01881 55.28972 37034 ft 466 kts 102°
2026-05-01 08:45 58.00996 55.41076 37029 ft 466 kts 102°
2026-05-01 08:45 58.00104 55.53177 37032 ft 466 kts 102°
2026-05-01 08:46 57.99195 55.65343 37030 ft 466 kts 102°
2026-05-01 08:46 57.98271 55.77430 37033 ft 466 kts 102°
2026-05-01 08:47 57.97340 55.89485 37033 ft 466 kts 102°
2026-05-01 08:47 57.96409 56.01567 37030 ft 466 kts 103°
2026-05-01 08:48 57.95469 56.13644 37030 ft 466 kts 103°
2026-05-01 08:48 57.94515 56.25708 37026 ft 466 kts 103°
2026-05-01 08:49 57.93546 56.37751 37023 ft 466 kts 103°
2026-05-01 08:49 57.92559 56.49796 37019 ft 466 kts 103°
2026-05-01 08:50 57.91565 56.61833 37013 ft 466 kts 103°
2026-05-01 08:50 57.90564 56.73867 37011 ft 466 kts 103°
2026-05-01 08:51 57.89555 56.85904 37011 ft 466 kts 104°
2026-05-01 08:51 57.88523 56.98007 37005 ft 465 kts 104°
2026-05-01 08:52 57.87480 57.10005 37002 ft 465 kts 104°
2026-05-01 08:52 57.86427 57.21994 37002 ft 465 kts 104°
2026-05-01 08:53 57.85371 57.33973 36998 ft 465 kts 104°
2026-05-01 08:53 57.84307 57.45934 36993 ft 464 kts 104°
2026-05-01 08:54 57.83229 57.57880 36986 ft 464 kts 104°
2026-05-01 08:54 57.82140 57.69815 36987 ft 464 kts 105°
2026-05-01 08:55 57.81038 57.81728 36982 ft 463 kts 105°
2026-05-01 08:55 57.79923 57.93625 36981 ft 463 kts 105°
2026-05-01 08:56 57.78804 58.05520 36982 ft 463 kts 105°
2026-05-01 08:56 57.77678 58.17479 36979 ft 463 kts 105°
2026-05-01 08:57 57.76537 58.29345 36978 ft 462 kts 105°
2026-05-01 08:57 57.75395 58.41205 36976 ft 463 kts 105°
2026-05-01 08:58 57.74256 58.53060 36979 ft 462 kts 106°
2026-05-01 08:58 57.73112 58.64891 36974 ft 461 kts 106°
2026-05-01 08:59 57.71950 58.76690 36968 ft 461 kts 106°
2026-05-01 08:59 57.70767 58.88457 36968 ft 461 kts 106°
2026-05-01 09:00 57.69563 59.00329 36969 ft 461 kts 107°
2026-05-01 09:00 57.68359 59.12067 36960 ft 460 kts 107°
2026-05-01 09:01 57.67147 59.23794 36958 ft 459 kts 107°
2026-05-01 09:01 57.65931 59.35499 36951 ft 459 kts 107°
2026-05-01 09:02 57.64709 59.47185 36950 ft 458 kts 107°
2026-05-01 09:02 57.63471 59.58851 36947 ft 458 kts 107°
2026-05-01 09:03 57.62224 59.70527 36936 ft 458 kts 108°
2026-05-01 09:03 57.60962 59.82241 36937 ft 458 kts 108°
2026-05-01 09:04 57.59698 59.93880 36939 ft 458 kts 108°
2026-05-01 09:04 57.58418 60.05493 36934 ft 457 kts 108°
2026-05-01 09:05 57.57130 60.17097 36931 ft 457 kts 108°
2026-05-01 09:05 57.55830 60.28700 36927 ft 457 kts 108°
2026-05-01 09:06 57.54521 60.40289 36919 ft 457 kts 108°
2026-05-01 09:06 57.53199 60.51862 36928 ft 457 kts 108°
2026-05-01 09:07 57.52103 60.63558 36915 ft 465 kts 99°
2026-05-01 09:07 57.51771 60.75579 36920 ft 465 kts 99°
2026-05-01 09:08 57.51421 60.87674 36921 ft 465 kts 99°
2026-05-01 09:08 57.51053 60.99683 36924 ft 465 kts 100°
2026-05-01 09:09 57.50671 61.11683 36923 ft 465 kts 100°
2026-05-01 09:09 57.50282 61.23679 36922 ft 464 kts 100°
2026-05-01 09:10 57.49956 61.33633 36920 ft 464 kts 100°
2026-05-01 09:10 57.49553 61.45627 36920 ft 465 kts 100°
2026-05-01 09:11 57.49056 61.59632 36924 ft 465 kts 101°
2026-05-01 09:11 57.48699 61.69602 36927 ft 465 kts 101°
2026-05-01 09:12 57.48266 61.81585 36923 ft 464 kts 101°
2026-05-01 09:12 57.47820 61.93556 36917 ft 464 kts 101°
2026-05-01 09:13 57.47350 62.05580 36916 ft 464 kts 101°
2026-05-01 09:13 57.46873 62.17520 36916 ft 463 kts 101°
2026-05-01 09:14 57.46399 62.29448 36909 ft 463 kts 101°
2026-05-01 09:14 57.45921 62.41375 36895 ft 463 kts 101°
2026-05-01 09:15 57.45435 62.53291 36896 ft 463 kts 101°
2026-05-01 09:15 57.44933 62.65194 36896 ft 463 kts 101°
2026-05-01 09:16 57.44408 62.77184 36890 ft 463 kts 102°
2026-05-01 09:17 57.43616 62.95050 36882 ft 463 kts 102°
2026-05-01 09:17 57.42795 63.12893 36881 ft 463 kts 102°
2026-05-01 09:18 57.41948 63.30815 36874 ft 463 kts 102°
2026-05-01 09:19 57.41080 63.48633 36865 ft 462 kts 102°
2026-05-01 09:20 57.40185 63.66447 36864 ft 462 kts 102°
2026-05-01 09:21 57.37804 63.89524 36845 ft 453 kts 112°
2026-05-01 09:21 57.35399 64.06474 36831 ft 454 kts 112°
2026-05-01 09:22 57.32150 64.29074 36813 ft 455 kts 112°
2026-05-01 09:23 57.29671 64.46021 36805 ft 455 kts 112°
2026-05-01 09:24 57.27176 64.63043 36800 ft 456 kts 112°
2026-05-01 09:25 57.23833 64.85647 36798 ft 456 kts 112°
2026-05-01 09:26 57.21283 65.02579 36804 ft 456 kts 112°
2026-05-01 09:26 57.18716 65.19462 36808 ft 456 kts 113°
2026-05-01 09:27 57.16534 65.36655 36810 ft 465 kts 103°
2026-05-01 09:28 57.15803 65.48478 36809 ft 464 kts 104°
2026-05-01 09:28 57.15040 65.60262 36798 ft 463 kts 104°
2026-05-01 09:29 57.13877 65.77924 36780 ft 463 kts 104°
2026-05-01 09:30 57.12709 65.95559 36765 ft 463 kts 104°
2026-05-01 09:30 57.11503 66.13179 36758 ft 463 kts 105°
2026-05-01 09:31 57.10686 66.24936 36761 ft 463 kts 105°
2026-05-01 09:32 57.09446 66.42570 36760 ft 464 kts 105°
2026-05-01 09:32 57.08178 66.60285 36759 ft 464 kts 105°
2026-05-01 09:33 57.07311 66.72045 36755 ft 464 kts 105°
2026-05-01 09:34 57.05992 66.89687 36749 ft 465 kts 105°
2026-05-01 09:34 57.04561 67.07299 36750 ft 464 kts 106°
2026-05-01 09:35 57.03007 67.24945 36746 ft 465 kts 106°
2026-05-01 09:36 57.01976 67.36639 36746 ft 464 kts 106°
2026-05-01 09:36 57.00937 67.48313 36737 ft 464 kts 106°
2026-05-01 09:37 56.99892 67.59988 36736 ft 464 kts 106°
2026-05-01 09:37 56.98306 67.77496 36734 ft 463 kts 107°
2026-05-01 09:38 56.96708 67.94966 36733 ft 464 kts 107°
2026-05-01 09:39 56.95249 68.10466 36720 ft 463 kts 107°
2026-05-01 09:39 56.93956 68.24065 36711 ft 464 kts 107°
2026-05-01 09:40 56.92289 68.41507 36707 ft 464 kts 107°
2026-05-01 09:41 56.91340 68.51256 36695 ft 464 kts 107°
2026-05-01 09:41 56.89607 68.68706 36690 ft 465 kts 107°
2026-05-01 09:42 56.88451 68.80362 36690 ft 466 kts 107°
2026-05-01 09:43 56.86108 69.03646 36681 ft 466 kts 107°
2026-05-01 09:43 56.84906 69.15279 36677 ft 466 kts 107°
2026-05-01 09:44 56.83080 69.32789 36671 ft 466 kts 107°
2026-05-01 09:45 56.81854 69.44394 36666 ft 466 kts 108°
2026-05-01 09:45 56.80007 69.61802 36661 ft 466 kts 108°
2026-05-01 09:46 56.78763 69.73391 36656 ft 466 kts 108°
2026-05-01 09:46 56.77506 69.84971 36656 ft 466 kts 108°
2026-05-01 09:47 56.76241 69.96539 36653 ft 465 kts 108°
2026-05-01 09:47 56.74953 70.08114 36645 ft 465 kts 108°
2026-05-01 09:48 56.73655 70.19663 36641 ft 465 kts 108°
2026-05-01 09:48 56.72315 70.31172 36639 ft 465 kts 109°
2026-05-01 09:49 56.70902 70.42654 36638 ft 464 kts 109°
2026-05-01 09:49 56.69480 70.54123 36635 ft 465 kts 109°
2026-05-01 09:50 56.68065 70.65600 36635 ft 465 kts 109°
2026-05-01 09:50 56.66645 70.77077 36634 ft 465 kts 109°
2026-05-01 09:51 56.65188 70.88609 36637 ft 465 kts 109°
2026-05-01 09:51 56.63737 71.00067 36640 ft 466 kts 109°
2026-05-01 09:52 56.62273 71.11524 36643 ft 466 kts 109°
2026-05-01 09:52 56.60793 71.22980 36643 ft 466 kts 110°
2026-05-01 09:53 56.59302 71.34436 36646 ft 466 kts 110°
2026-05-01 09:53 56.57809 71.45897 36647 ft 467 kts 109°
2026-05-01 09:54 56.56303 71.57362 36655 ft 467 kts 110°
2026-05-01 09:54 56.54778 71.68808 36657 ft 468 kts 110°
2026-05-01 09:55 56.53239 71.80264 36661 ft 468 kts 110°
2026-05-01 09:55 56.51700 71.91721 36665 ft 468 kts 110°
2026-05-01 09:56 56.50133 72.03246 36675 ft 468 kts 110°
2026-05-01 09:56 56.48562 72.14678 36683 ft 468 kts 110°
2026-05-01 09:57 56.46987 72.26092 36684 ft 468 kts 110°
2026-05-01 09:57 56.45403 72.37516 36690 ft 468 kts 110°
2026-05-01 09:58 56.43803 72.48920 36700 ft 468 kts 110°
2026-05-01 09:58 56.42193 72.60316 36708 ft 468 kts 110°
2026-05-01 09:59 56.40569 72.71686 36716 ft 468 kts 110°
2026-05-01 09:59 56.38941 72.83060 36723 ft 468 kts 110°
2026-05-01 10:00 56.37313 72.94421 36728 ft 468 kts 110°
2026-05-01 10:00 56.35664 73.05771 36729 ft 468 kts 110°
2026-05-01 10:01 56.33985 73.17189 36736 ft 468 kts 110°
2026-05-01 10:01 56.32311 73.28525 36742 ft 468 kts 110°
2026-05-01 10:02 56.30635 73.39862 36745 ft 468 kts 110°
2026-05-01 10:02 56.28942 73.51193 36748 ft 469 kts 111°
2026-05-01 10:03 56.27233 73.62510 36744 ft 469 kts 109°
2026-05-01 10:03 56.25502 73.73842 36773 ft 470 kts 111°
2026-05-01 10:04 56.23761 73.85239 36780 ft 470 kts 111°
2026-05-01 10:04 56.21993 73.96542 36780 ft 469 kts 112°
2026-05-01 10:05 56.20049 74.07710 36779 ft 468 kts 114°
2026-05-01 10:05 56.17996 74.18809 36777 ft 469 kts 114°
2026-05-01 10:06 56.15946 74.29995 36779 ft 469 kts 113°
2026-05-01 10:06 56.13932 74.41146 36783 ft 470 kts 113°
2026-05-01 10:07 56.11932 74.52287 36778 ft 470 kts 113°
2026-05-01 10:07 56.10238 74.61615 36781 ft 470 kts 113°
2026-05-01 10:08 56.07164 74.78284 36786 ft 470 kts 113°
2026-05-01 10:09 56.05083 74.89474 36791 ft 470 kts 114°
2026-05-01 10:09 56.03003 75.00565 36797 ft 471 kts 114°
2026-05-01 10:10 56.00913 75.11652 37092 ft 471 kts 113°
2026-05-01 10:10 55.99865 75.17199 37406 ft 470 kts 113°
2026-05-01 10:10 55.97769 75.28247 37977 ft 469 kts 113°
2026-05-01 10:11 55.96717 75.33757 38263 ft 469 kts 113°
2026-05-01 10:11 55.95667 75.39253 38519 ft 468 kts 113°
2026-05-01 10:11 55.94611 75.44766 38707 ft 469 kts 113°
2026-05-01 10:11 55.93556 75.50278 38803 ft 470 kts 113°
2026-05-01 10:12 55.91425 75.61382 38820 ft 470 kts 113°
2026-05-01 10:13 55.88218 75.77876 38826 ft 470 kts 113°
2026-05-01 10:13 55.86066 75.88865 38826 ft 470 kts 113°
2026-05-01 10:14 55.82821 76.05341 38834 ft 471 kts 113°
2026-05-01 10:14 55.80638 76.16332 38841 ft 471 kts 113°
2026-05-01 10:15 55.78445 76.27303 38847 ft 472 kts 113°
2026-05-01 10:15 55.76250 76.38281 38849 ft 472 kts 113°
2026-05-01 10:16 55.74031 76.49252 38853 ft 472 kts 114°
2026-05-01 10:17 55.70678 76.65757 38855 ft 472 kts 113°
2026-05-01 10:17 55.67320 76.82153 38861 ft 472 kts 113°
2026-05-01 10:18 55.63926 76.98548 38867 ft 473 kts 114°
2026-05-01 10:19 55.61656 77.09473 38872 ft 473 kts 113°
2026-05-01 10:19 55.59384 77.20379 38876 ft 473 kts 114°
2026-05-01 10:20 55.55941 77.36716 38880 ft 473 kts 114°
2026-05-01 10:20 55.53619 77.47664 38884 ft 473 kts 114°
2026-05-01 10:21 55.50141 77.63968 38887 ft 474 kts 114°
2026-05-01 10:22 55.46635 77.80247 38890 ft 474 kts 114°
2026-05-01 10:23 55.43114 77.96532 38897 ft 474 kts 114°
2026-05-01 10:23 55.39558 78.12795 38900 ft 475 kts 114°
2026-05-01 10:24 55.35331 78.34857 38904 ft 479 kts 99°
2026-05-01 10:25 55.33494 78.58124 38912 ft 479 kts 99°
2026-05-01 10:26 55.32542 78.69730 38915 ft 479 kts 99°
2026-05-01 10:27 55.30622 78.92890 38903 ft 479 kts 101°
2026-05-01 10:28 55.28991 79.09893 38919 ft 468 kts 102°
2026-05-01 10:28 55.27391 79.26757 38922 ft 468 kts 99°
2026-05-01 10:29 55.26222 79.43894 38924 ft 470 kts 99°
2026-05-01 10:30 55.24223 79.66645 36854 ft 475 kts 102°
2026-05-01 10:31 55.23148 79.78029 35195 ft 477 kts 102°
2026-05-01 10:31 55.22076 79.89623 33202 ft 487 kts 102°
2026-05-01 10:32 55.20986 80.01526 30959 ft 497 kts 102°
2026-05-01 10:32 55.20433 80.07509 29977 ft 498 kts 102°
2026-05-01 10:32 55.19321 80.19437 27097 ft 493 kts 102°
2026-05-01 10:33 55.18189 80.31309 24859 ft 493 kts 102°
2026-05-01 10:33 55.17050 80.43009 23040 ft 483 kts 102°
2026-05-01 10:34 55.16484 80.48740 22211 ft 475 kts 102°
2026-05-01 10:34 55.16104 80.52577 21666 ft 471 kts 102°
2026-05-01 10:34 55.15553 80.58182 20884 ft 465 kts 102°
2026-05-01 10:35 55.14469 80.69191 19395 ft 455 kts 102°
2026-05-01 10:35 55.13933 80.74610 18698 ft 450 kts 102°
2026-05-01 10:35 55.13393 80.80032 17976 ft 445 kts 102°
2026-05-01 10:35 55.12860 80.85338 17323 ft 439 kts 102°
2026-05-01 10:36 55.11734 80.95658 16130 ft 426 kts 108°
2026-05-01 10:36 55.10703 81.00456 15551 ft 418 kts 118°
2026-05-01 10:36 55.09487 81.05033 14978 ft 415 kts 118°
2026-05-01 10:37 55.08278 81.09590 14392 ft 411 kts 118°
2026-05-01 10:37 55.05899 81.18585 13120 ft 405 kts 117°
2026-05-01 10:37 55.04727 81.22999 12568 ft 398 kts 117°
2026-05-01 10:38 55.03567 81.27339 11912 ft 393 kts 117°
2026-05-01 10:38 55.02415 81.31643 11272 ft 388 kts 117°
2026-05-01 10:38 55.01299 81.35815 11033 ft 372 kts 117°
2026-05-01 10:38 55.00249 81.39750 10980 ft 342 kts 117°
2026-05-01 10:39 54.99287 81.43355 10955 ft 315 kts 118°
2026-05-01 10:39 54.98371 81.46772 10620 ft 303 kts 118°
2026-05-01 10:39 54.97481 81.50070 10328 ft 299 kts 118°
2026-05-01 10:39 54.96600 81.53325 10094 ft 295 kts 118°
2026-05-01 10:40 54.95727 81.56536 9903 ft 293 kts 118°
2026-05-01 10:40 54.94855 81.59744 9770 ft 293 kts 118°
2026-05-01 10:40 54.93987 81.62936 9644 ft 292 kts 118°
2026-05-01 10:40 54.93135 81.66126 9497 ft 289 kts 115°
2026-05-01 10:41 54.92632 81.69468 9253 ft 285 kts 99°
2026-05-01 10:41 54.92596 81.72941 8857 ft 286 kts 90°
2026-05-01 10:41 54.92685 81.79787 8185 ft 280 kts 91°
2026-05-01 10:42 54.92716 81.83152 7835 ft 278 kts 91°
2026-05-01 10:42 54.92747 81.86494 7495 ft 275 kts 91°
2026-05-01 10:42 54.92776 81.89799 7159 ft 273 kts 91°
2026-05-01 10:42 54.92805 81.93111 6740 ft 268 kts 91°
2026-05-01 10:43 54.92846 81.96331 6216 ft 265 kts 88°
2026-05-01 10:43 54.93209 81.99478 5751 ft 267 kts 77°
2026-05-01 10:43 54.93700 82.02581 5229 ft 264 kts 76°
2026-05-01 10:43 54.94184 82.05643 4686 ft 261 kts 77°
2026-05-01 10:44 54.94664 82.08702 4197 ft 263 kts 77°
2026-05-01 10:44 54.95140 82.11732 3870 ft 259 kts 77°
2026-05-01 10:44 54.95610 82.14719 3591 ft 252 kts 77°
2026-05-01 10:44 54.96061 82.17586 3472 ft 239 kts 77°
2026-05-01 10:45 54.96488 82.20302 3358 ft 226 kts 78°
2026-05-01 10:45 54.96897 82.22908 3257 ft 215 kts 78°
2026-05-01 10:45 54.97282 82.25378 3167 ft 209 kts 78°
2026-05-01 10:45 54.97657 82.27791 3076 ft 203 kts 78°
2026-05-01 10:46 54.98020 82.30138 2992 ft 195 kts 79°
2026-05-01 10:46 54.98268 82.32439 2864 ft 192 kts 84°
2026-05-01 10:46 54.98482 82.34726 2733 ft 192 kts 84°
2026-05-01 10:46 54.98689 82.37012 2597 ft 189 kts 84°
2026-05-01 10:47 54.98890 82.39216 2510 ft 177 kts 84°
2026-05-01 10:47 54.99079 82.41262 2360 ft 164 kts 85°
2026-05-01 10:47 54.99255 82.43160 2252 ft 155 kts 84°
2026-05-01 10:47 54.99420 82.44933 2165 ft 141 kts 85°
2026-05-01 10:48 54.99573 82.46579 2102 ft 135 kts 85°
2026-05-01 10:48 54.99712 82.48204 1953 ft 132 kts 86°
2026-05-01 10:48 54.99849 82.49776 1789 ft 131 kts 85°
2026-05-01 10:48 54.99988 82.51331 1635 ft 130 kts 86°
2026-05-01 10:49 55.00131 82.52899 1449 ft 129 kts 85°
2026-05-01 10:49 55.00274 82.54460 1295 ft 130 kts 85°
2026-05-01 10:49 55.00416 82.56009 1116 ft 129 kts 85°
2026-05-01 10:49 55.00558 82.57563 938 ft 131 kts 84°
2026-05-01 10:50 55.00703 82.59134 761 ft 131 kts 85°
2026-05-01 10:50 55.00850 82.60732 585 ft 131 kts 83°
2026-05-01 10:50 55.00995 82.62313 434 ft 131 kts 83°
2026-05-01 10:50 55.01130 82.63904 390 ft 129 kts 77°
2026-05-01 10:51 55.01272 82.65349 373 ft 98 kts 82°
2026-05-01 10:51 55.01357 82.66321 373 ft 67 kts 81°
2026-05-01 10:51 55.01421 82.67025 374 ft 49 kts 81°
2026-05-01 10:51 55.01465 82.67525 371 ft 35 kts 81°
2026-05-01 10:52 55.01448 82.67780 372 ft 17 kts 160°
2026-05-01 10:52 55.01347 82.67697 373 ft 16 kts 210°
2026-05-01 10:52 55.01281 82.67630 373 ft 16 kts 211°
2026-05-01 10:52 55.01183 82.67527 373 ft 17 kts 211°
2026-05-01 10:53 55.01106 82.67400 373 ft 13 kts 261°
2026-05-01 10:53 55.01104 82.67296 373 ft 0 kts 270°
2026-05-01 10:53 55.01104 82.67244 373 ft 8 kts 268°
2026-05-01 10:53 55.01094 82.67110 373 ft 14 kts 259°
2026-05-01 10:54 55.01078 82.66935 373 ft 16 kts 264°
2026-05-01 10:54 55.01086 82.66746 373 ft 9 kts 211°
2026-05-01 10:54 55.01036 82.66753 373 ft 4 kts 171°
2026-05-01 10:54 55.01030 82.66755 373 ft 0 kts 172°